sat.trackr.live / text

‹ back to catalog

NUSAT-44 (MARIA MITCHE*)

NORAD 59122 · 2024-043AA

PAYLOAD ACTIVE UNKNOWN

§ Identity

Operator
Country
ARGN
Launch date
2024-03-04
Launch site
AFWTR
Launch vehicle
Mass (kg)
RCS (m²)

External: N2YO · Heavens-Above · Gunter

§ Orbital elements

Epoch: 2026-09-22T22:10:52.091328Z

Period
94.13 min
Inclination
97.5574°
Eccentricity
0.0004184
Mean motion
15.29839865 rev/d
Perigee alt
473.4 km
Apogee alt
479.2 km
Semi-major
6,854.4 km
B*
2.6942e-4
RAAN
47.7466°
Arg perigee
240.6303°
Mean anomaly
119.4519°
Rev number
14,221

§ Raw data

NUSAT-44 (MARIA MITCHE*)1 59122U 24043AA  26265.92421402  .00007709  00000+0  26942-3 0  99952 59122  97.5574  47.7466 0004184 240.6303 119.4519 15.29839865142213

JSON: /api/v1/satellites/59122 · /tle

For live sub-satellite position, see the globe view (requires WebGL).

§ Visibility from observer

Set your observer location to see the next 7 days of passes ≥ 10°. The values pass through the URL so the page stays shareable.

No JS? Fill the form by hand. The geolocation button needs JavaScript.